Location: Unspecified
(0.0000°N, 0.0000°E)
Time: 14:38:55
(UTC+00:00)

Courier 1B Rocket - Visible Passes

Search period start: 02 February 2023 00:00
Search period end: 12 February 2023 00:00
Orbit: 920 x 1202 km, 28.2° (Epoch: 01 February)

Date Brightness Start Highest point End Pass type
(mag) Time Alt. Az. Time Alt. Az. Time Alt. Az.
02 Feb 7.1 03:18:19 22° S 03:18:19 22° S 03:21:56 10° SSE visible
03 Feb 7.9 02:20:56 11° SE 02:20:56 11° SE 02:21:07 10° SE visible
03 Feb 7.4 04:07:18 12° SSW 04:08:54 13° SSW 04:12:09 10° S visible
04 Feb 7.5 03:09:54 15° S 03:09:54 15° S 03:12:02 10° SSE visible
06 Feb 7.8 03:01:27 10° S 03:01:27 10° S 03:01:29 10° S visible
08 Feb 6.8 20:02:19 10° NNW 20:04:06 15° N 20:04:06 15° N visible
09 Feb 6.7 19:02:48 10° N 19:05:23 13° NNE 19:07:16 11° NE visible
09 Feb 7.3 20:53:12 10° NW 20:53:40 12° NW 20:53:40 12° NW visible
10 Feb 6.0 19:52:43 10° NNW 19:56:55 28° N 19:56:55 28° N visible
11 Feb 7.9 05:31:16 10° S 05:32:57 11° SSE 05:34:38 10° SSE visible
11 Feb 6.3 18:52:32 10° NNW 18:56:54 20° NNE 19:00:14 13° ENE visible
11 Feb 6.5 20:44:14 10° NW 20:46:39 25° NW 20:46:39 25° NW visible
